Regional Weather Roundup
Issued by NWS Memphis, TN

Home | Current Version | Previous Version | Text Only | Print | Product List | Glossary On
Versions: 1 2 3 4 5 6 7 8 9 10 11 12 13 14 15 16 17 18 19 20 21 22 23 24 25 26 27 28 29 30 31 32 33 34 35 36 37 38 39 40 41 42 43 44 45 46 47 48 49 50
000
ASUS44 KMEG 140410
RWRMEG
MEMPHIS CWA HOURLY WEATHER ROUNDUP
NATIONAL WEATHER SERVICE MEMPHIS TN
1000 PM CST TUE NOV 13 2018

...WEST TENNESSEE...

CITY           SKY/WX    TMP DP  RH WIND       PRES   REMARKS
MEMPHIS INTL   CLOUDY    31  25  78 N12       30.44S WCI  22
NWS MEMPHIS      N/A     30 N/A N/A MISG        N/A
JACKSON        CLOUDY    31  25  78 N12       30.45R WCI  22
COVINGTON      MOCLDY    30  23  74 NE10G17   30.48S WCI  21
SOMERVILLE     CLOUDY    30  25  80 N8G15     30.42S WCI  23
BOLIVAR        CLOUDY    32  27  80 VRB7      30.42F WCI  26
LEXINGTON      CLOUDY    32  27  80 N9G17     30.42S WCI  24
SELMER         CLOUDY    32  28  86 N10       30.40R WCI  24
DYERSBURG      FAIR      27  21  78 N12       30.49S WCI  17
UNION CITY     CLOUDY    27  21  80 N14       30.49S WCI  15
PARIS          CLOUDY    28  23  80 N14       30.45F WCI  17
HUNTINGDON     CLOUDY    30  25  80 VRB7G13   30.44S WCI  23


...EASTERN ARKANSAS...

CITY           SKY/WX    TMP DP  RH WIND       PRES   REMARKS
JONESBORO      FAIR      30  22  72 NE8       30.50S WCI  22
WEST MEMPHIS   FAIR      32  25  75 N13       30.46F WCI  22
BATESVILLE     PTCLDY    30  19  63 VRB7      30.50R WCI  23
NEWPORT        FAIR      29  24  82 N10       30.49F WCI  20
WALNUT RIDGE   FAIR      30  21  69 NE12      30.51F WCI  20
BLYTHEVILLE    FAIR      29  19  66 N13       30.50S WCI  19
SEARCY         FAIR      33  22  63 N8        30.49S WCI  26
STUTTGART      CLOUDY    35  27  72 N8        30.47S WCI  29
PINE BLUFF     CLOUDY    36  25  64 N9        30.46S WCI  29
MONTICELLO     CLOUDY    36  27  69 N7        30.42F WCI  30


...NORTH MISSISSIPPI...

CITY           SKY/WX    TMP DP  RH WIND       PRES   REMARKS
TUPELO         CLOUDY    35  29  78 N15       30.36F WCI  25
OXFORD         CLOUDY    30  27  86 NE5       30.41F WCI  25
BATESVILLE     CLOUDY    32  27  80 VRB6      30.42S WCI  26
OLIVE BRANCH   CLOUDY    28  27  93 CALM      30.43S
TUNICA           N/A     32  27  80 N13G20    30.46S WCI  22
CLARKSDALE       N/A     34  28  80 N14G20    30.44S WCI  24
CORINTH        CLOUDY    34  28  80 N10       30.39S WCI  26
GREENWOOD      CLOUDY    35  29  78 MISG      30.38F
COLUMBUS       CLOUDY    37  33  84 NW12      30.35R WCI  30
STARKVILLE     CLOUDY    36  32  87 N10G16    30.35F WCI  28
GOLDEN TRIANGL CLOUDY    37  34  89 N13       30.37R WCI  29


...SOUTHEAST MISSOURI...

CITY           SKY/WX    TMP DP  RH WIND       PRES   REMARKS
KENNETT          N/A     28  21  74 NE12G18   30.50  WCI  18
MALDEN         FAIR      30  19  64 N10       30.54S WCI  21
WEST PLAINS    CLEAR     21  14  74 N6        30.49S WCI  13
POPLAR BLUFF   FAIR      28  19  69 N8        30.53R WCI  20
CAPE GIRARDEAU FAIR      26  16  65 NE10      30.53R WCI  16


...NORTHWEST ALABAMA...

CITY           SKY/WX    TMP DP  RH WIND       PRES   REMARKS
MUSCLE SHOALS  CLOUDY    36  31  82 N10G17    30.38R WCI  28


...MIDDLE TENNESSEE...

CITY           SKY/WX    TMP DP  RH WIND       PRES   REMARKS
NASHVILLE      CLOUDY    34  28  79 N10G21    30.42R WCI  26
CLARKSVILLE    CLOUDY    30  23  75 N10       30.45S WCI  21
DICKSON        CLOUDY    30  27  86 NE8G14    30.40F WCI  23
COLUMBIA       CLOUDY    34  32  93 N8G14     30.37F WCI  27
LAWRENCEBURG   CLOUDY    32  30  93 N12       30.35F FOG     WCI  23
LEWISBURG      CLOUDY    34  32  93 MISG      30.36S


...WESTERN KENTUCKY...

CITY           SKY/WX    TMP DP  RH WIND       PRES   REMARKS
PADUCAH        FAIR      25  18  74 N9        30.51R WCI  15
FORT CAMPBELL  CLOUDY    30  25  80 N10       30.45  WCI  21


...CENTRAL ARKANSAS...

CITY           SKY/WX    TMP DP  RH WIND       PRES   REMARKS
LITTLE ROCK    CLOUDY    35  21  56 N7        30.48S WCI  29


SKY/WX REPORTED AS FAIR MEANS FEW OR NO CLOUDS BELOW
12 THOUSAND FEET.




USA.gov is the U.S. government's official web portal to all federal, state and local government web resources and services.